KFPRKEYW

Guest
Details From KFPR - St Lucie Co Intl
To KEYW - Key West Intl
Flight Number -
Tags generated
Created
Modified
Stats Distance 192 nm / 356 km
Max Altitude 20,900 ft / 6,370 m
Waypoints 3
Social Downloads 0
Likes 0
Share VATSIM

Download

Looking for another format? Having issues loading an existing format? Contact us
Advertisement - Login to hide

Notes

Basic altitude profile: - Ascent Rate: 750ft/min - Ascent Speed: 250kts - Cruise Altitude: 10000ft - Cruise Speed: 420kts - Descent Rate: 500ft/min - Descent Speed: 250kts Options: - Use NATs: yes - Use PACOTS: yes - Use low airways: no - Use high airways: yes

Route

KFPR KUBIC KEYW

ID Type Via Altitude Latitude Longitude Leg Dist Tot Dist Heading (true) Name
O KFPR APT - 0 ft / 0 m 27.49466˚ -80.36807˚ - 0 nm - St Lucie Co Intl
KUBIC FIX - 20,900 ft / 6,370 m 26.09766˚ -80.94952˚ 89 nm 89 nm 201° / 200° -
O KEYW APT - 0 ft / 0 m 24.55612˚ -81.75955˚ 102 nm 191 nm 206° / 205° Key West Intl

Altitude Profile

Advertisement - Login to hide

Weather


0- 5 10 15 20 25 30 35+ Temperature / ° C

Clouds and Precipitation
Forecast for 2018-05-24 06:00 UTC. Updated 2 hours ago

Ground ~20,000 ft ~40,000 ft Winds

KFPR

Details ICAO KFPR (FRP)
Name St Lucie Co Intl
Region United States
Timezone America/New_York (UTC-4.0)
Stats Elevation 23 ft / 7 m (AMSL)
Location 27.494664° -80.368073°
Runways 2
Magnetic Variation 6.889° W

METAR

KFPR 240553Z AUTO 00000KT 10SM CLR 24/23 A3007 RMK AO2 SLP183 T02390228 10261 20228 58007

Decode

TAF

TAF KFPR 240520Z 2406/2506 VRB02KT P6SM FEW020 FEW080 FM241500 11009KT P6SM VCSH FEW030 SCT080 FM242000 11012KT P6SM SCT030 FM250000 10006KT P6SM FEW030 BKN080 BKN250

Decode

Departure Runways

ID Width Length Bearing (true) Bearing (mag) Surface Threshold Offset Overrun Length
09 150 ft / 46 m 6,481 ft / 1,975 m 90.47° 97.36° Asphalt 0 ft / 0 m 200 ft / 61 m
14 100 ft / 30 m 4,762 ft / 1,451 m 135.63° 142.52° Asphalt 0 ft / 0 m 0 ft / 0 m
27 150 ft / 46 m 6,481 ft / 1,975 m 270.48° 277.37° Asphalt 0 ft / 0 m 200 ft / 61 m
32 100 ft / 30 m 4,762 ft / 1,451 m 315.63° 322.52° Asphalt 0 ft / 0 m 0 ft / 0 m

KEYW

Details ICAO KEYW (EYW)
Name Key West Intl
Region United States
Timezone America/New_York (UTC-4.0)
Stats Elevation 2 ft / 1 m (AMSL)
Location 24.556124° -81.759546°
Runways 1
Magnetic Variation 5.593° W

METAR

KEYW 240553Z AUTO 11007KT 10SM FEW020 26/24 A3004 RMK AO2 SLP173 T02610244 10267 20261 58008

Decode

TAF

KEYW 240529Z 2406/2506 11009KT P6SM FEW020 BKN150

Decode

Destination Runways

ID Width Length Bearing (true) Bearing (mag) Surface Threshold Offset Overrun Length
09 100 ft / 30 m 4,794 ft / 1,461 m 89.38° 94.97° Asphalt 151 ft / 46 m 0 ft / 0 m
27 100 ft / 30 m 4,794 ft / 1,461 m 269.39° 274.98° Asphalt 151 ft / 46 m 0 ft / 0 m

Popular Alternatives